When you browse on this site, cookies collect data to enhance your experience and personalize the content and advertising you see.
Visit our Privacy Policy to learn more. By continuing to use the site, you agree to this use of cookies and data.
  • In Austria
  • List of Countries
  • For 7 days
  • Water Temperature
  • Satellite Maps
  • Weather Map
  • News
  • Weather Widgets
  • user-avatar
    Login

    Hourly Weather Trostyanec

    Today, 23 April, Tuesday

    Time Temperature Precipitation Wind Pressure Humidity
    00:00 +12°C° 0 mm 1 mps 760 mmHg 46%
    01:00 +12°C° 0 mm 1 mps 760 mmHg 48%
    02:00 +12°C° 0 mm 2 mps 760 mmHg 49%
    03:00 +12°C° 0 mm 2 mps 760 mmHg 51%
    04:00 +12°C° 0 mm 2 mps 760 mmHg 53%
    05:00 +11°C° 0 mm 1 mps 760 mmHg 55%
    06:00 +13°C° 0 mm 1 mps 761 mmHg 53%
    07:00 +14°C° 0 mm 1 mps 761 mmHg 51%
    08:00 +15°C° 0 mm 1 mps 761 mmHg 49%
    09:00 +16°C° 0 mm 2 mps 761 mmHg 43%
    10:00 +17°C° 0 mm 2 mps 761 mmHg 37%
    11:00 +19°C° 0 mm 2 mps 761 mmHg 31%
    12:00 +20°C° 0 mm 1 mps 761 mmHg 31%
    13:00 +20°C° 0 mm 1 mps 761 mmHg 31%
    14:00 +20°C° 0 mm 1 mps 761 mmHg 31%
    15:00 +20°C° 0 mm 1 mps 761 mmHg 34%
    16:00 +20°C° 0 mm 1 mps 761 mmHg 37%
    17:00 +19°C° 0 mm 1 mps 760 mmHg 40%
    18:00 +18°C° 0 mm 1 mps 760 mmHg 42%
    19:00 +16°C° 0 mm 1 mps 761 mmHg 44%
    20:00 +15°C° 0 mm 1 mps 761 mmHg 46%
    21:00 +15°C° 0 mm 1 mps 761 mmHg 48%
    22:00 +14°C° 0 mm 1 mps 761 mmHg 50%
    23:00 +14°C° 0 mm 1 mps 761 mmHg 52%

    Tomorrow, 24 April, Wednesday

    Time Temperature Precipitation Wind Pressure Humidity
    00:00 +13°C° 0 mm 1 mps 761 mmHg 53%
    01:00 +12°C° 0 mm 1 mps 761 mmHg 54%
    02:00 +11°C° 0 mm 0 mps 761 mmHg 56%
    03:00 +11°C° 0 mm 1 mps 761 mmHg 57%
    04:00 +11°C° 0 mm 1 mps 761 mmHg 58%
    05:00 +11°C° 0 mm 1 mps 761 mmHg 60%
    06:00 +13°C° 0 mm 1 mps 761 mmHg 55%
    07:00 +14°C° 0 mm 1 mps 762 mmHg 51%
    08:00 +16°C° 0 mm 1 mps 762 mmHg 47%
    09:00 +17°C° 0 mm 2 mps 762 mmHg 43%
    10:00 +18°C° 0 mm 2 mps 761 mmHg 39%
    11:00 +20°C° 0 mm 2 mps 761 mmHg 35%
    12:00 +20°C° 0 mm 2 mps 761 mmHg 35%
    13:00 +20°C° 0 mm 2 mps 761 mmHg 35%
    14:00 +21°C° 0 mm 2 mps 761 mmHg 35%
    15:00 +21°C° 0 mm 2 mps 760 mmHg 38%
    16:00 +21°C° 0 mm 1 mps 760 mmHg 41%
    17:00 +21°C° 0 mm 1 mps 760 mmHg 44%
    18:00 +19°C° 0 mm 1 mps 760 mmHg 48%
    19:00 +18°C° 0 mm 1 mps 760 mmHg 51%
    20:00 +15°C° 0 mm 1 mps 760 mmHg 55%
    21:00 +15°C° 0 mm 1 mps 760 mmHg 56%
    22:00 +15°C° 0 mm 1 mps 760 mmHg 57%
    23:00 +14°C° 0 mm 1 mps 760 mmHg 58%

    Day after tomorrow, 25 April, Thursday

    Time Temperature Precipitation Wind Pressure Humidity
    00:00 +14°C° 0 mm 1 mps 760 mmHg 58%
    01:00 +14°C° 0 mm 1 mps 760 mmHg 58%
    02:00 +14°C° 0 mm 2 mps 760 mmHg 58%
    03:00 +14°C° 0 mm 2 mps 760 mmHg 60%
    04:00 +14°C° 0 mm 2 mps 760 mmHg 62%
    05:00 +14°C° 0 mm 2 mps 760 mmHg 64%
    06:00 +15°C° 0 mm 2 mps 761 mmHg 61%
    07:00 +16°C° 0 mm 2 mps 761 mmHg 58%
    08:00 +18°C° 0 mm 2 mps 761 mmHg 55%
    09:00 +19°C° 0 mm 2 mps 760 mmHg 51%
    10:00 +20°C° 0 mm 2 mps 760 mmHg 46%
    11:00 +23°C° 0 mm 2 mps 760 mmHg 42%
    12:00 +23°C° 0 mm 1 mps 760 mmHg 41%
    13:00 +23°C° 0 mm 1 mps 760 mmHg 40%
    14:00 +24°C° 0 mm 1 mps 759 mmHg 39%
    15:00 +24°C° 0 mm 1 mps 759 mmHg 42%
    16:00 +23°C° 0 mm 1 mps 759 mmHg 45%
    17:00 +23°C° 0 mm 2 mps 759 mmHg 48%
    18:00 +20°C° 0 mm 2 mps 759 mmHg 51%
    19:00 +19°C° 0 mm 2 mps 759 mmHg 54%
    20:00 +18°C° 0 mm 2 mps 759 mmHg 57%
    21:00 +17°C° 0 mm 2 mps 759 mmHg 59%
    22:00 +17°C° 0 mm 2 mps 759 mmHg 60%
    23:00 +16°C° 0 mm 2 mps 759 mmHg 62%

    26 April, Friday

    Time Temperature Precipitation Wind Pressure Humidity
    00:00 +16°C° 0 mm 2 mps 759 mmHg 62%
    01:00 +16°C° 0 mm 2 mps 758 mmHg 61%
    02:00 +16°C° 0 mm 2 mps 758 mmHg 61%
    03:00 +16°C° 0 mm 1 mps 758 mmHg 62%
    04:00 +16°C° 0 mm 1 mps 758 mmHg 64%
    05:00 +15°C° 0 mm 1 mps 758 mmHg 65%
    06:00 +18°C° 0 mm 1 mps 758 mmHg 62%
    07:00 +19°C° 0 mm 1 mps 758 mmHg 59%
    08:00 +20°C° 0 mm 1 mps 758 mmHg 56%
    09:00 +22°C° 0 mm 1 mps 758 mmHg 50%
    10:00 +23°C° 0 mm 1 mps 758 mmHg 45%
    11:00 +24°C° 0 mm 1 mps 758 mmHg 40%
    12:00 +24°C° 0 mm 1 mps 758 mmHg 41%
    13:00 +23°C° 0 mm 1 mps 757 mmHg 42%
    14:00 +23°C° 0 mm 1 mps 757 mmHg 42%
    15:00 +23°C° 0 mm 1 mps 757 mmHg 44%
    16:00 +23°C° 0 mm 1 mps 757 mmHg 45%
    17:00 +23°C° 0 mm 1 mps 756 mmHg 46%
    18:00 +20°C° 0 mm 0 mps 756 mmHg 49%
    19:00 +19°C° 0 mm 0 mps 757 mmHg 51%
    20:00 +18°C° 0 mm 0 mps 757 mmHg 54%
    21:00 +17°C° 0 mm 0 mps 756 mmHg 56%
    22:00 +16°C° 0 mm 0 mps 756 mmHg 59%
    23:00 +15°C° 0 mm 0 mps 756 mmHg 62%

    27 April, Saturday

    Time Temperature Precipitation Wind Pressure Humidity
    00:00 +15°C° 0 mm 0 mps 756 mmHg 64%
    01:00 +14°C° 0 mm 0 mps 756 mmHg 65%
    02:00 +15°C° 0 mm 1 mps 756 mmHg 67%
    03:00 +15°C° 0 mm 1 mps 756 mmHg 69%
    04:00 +14°C° 0 mm 1 mps 756 mmHg 71%
    05:00 +14°C° 0 mm 1 mps 756 mmHg 73%
    06:00 +16°C° 0 mm 1 mps 756 mmHg 68%
    07:00 +19°C° 0 mm 1 mps 756 mmHg 62%
    08:00 +20°C° 0 mm 2 mps 756 mmHg 57%
    09:00 +21°C° 0 mm 2 mps 755 mmHg 51%
    10:00 +23°C° 0 mm 2 mps 755 mmHg 45%
    11:00 +24°C° 0 mm 3 mps 755 mmHg 39%
    12:00 +24°C° 0 mm 3 mps 755 mmHg 42%
    13:00 +24°C° 0 mm 3 mps 754 mmHg 45%
    14:00 +22°C° 0 mm 3 mps 754 mmHg 48%
    15:00 +22°C° 0 mm 3 mps 754 mmHg 50%
    16:00 +21°C° 0 mm 2 mps 753 mmHg 52%
    17:00 +21°C° 0 mm 2 mps 753 mmHg 54%
    18:00 +20°C° 0 mm 3 mps 753 mmHg 59%
    19:00 +18°C° 0 mm 3 mps 753 mmHg 63%
    20:00 +17°C° 0 mm 3 mps 753 mmHg 68%
    21:00 +16°C° 0 mm 3 mps 753 mmHg 69%
    22:00 +16°C° 0 mm 3 mps 753 mmHg 69%
    23:00 +15°C° 0 mm 2 mps 753 mmHg 70%

    28 April, Sunday

    Time Temperature Precipitation Wind Pressure Humidity
    00:00 +15°C° 0 mm 2 mps 753 mmHg 70%
    01:00 +14°C° 0 mm 2 mps 753 mmHg 69%
    02:00 +14°C° 0 mm 2 mps 753 mmHg 69%
    03:00 +14°C° 0 mm 2 mps 753 mmHg 71%
    04:00 +13°C° 0 mm 2 mps 753 mmHg 72%
    05:00 +13°C° 0 mm 2 mps 753 mmHg 74%
    06:00 +15°C° 0 mm 2 mps 753 mmHg 68%
    07:00 +17°C° 0 mm 2 mps 753 mmHg 62%
    08:00 +19°C° 0 mm 2 mps 753 mmHg 56%
    09:00 +20°C° 0 mm 2 mps 753 mmHg 52%
    10:00 +21°C° 0 mm 2 mps 753 mmHg 47%
    11:00 +22°C° 0 mm 3 mps 753 mmHg 42%
    12:00 +22°C° 0 mm 3 mps 753 mmHg 41%
    13:00 +22°C° 0 mm 3 mps 752 mmHg 41%
    14:00 +22°C° 0 mm 3 mps 752 mmHg 40%
    15:00 +23°C° 0 mm 2 mps 752 mmHg 42%
    16:00 +23°C° 0 mm 2 mps 752 mmHg 44%
    17:00 +23°C° 0 mm 2 mps 752 mmHg 46%
    18:00 +20°C° 0 mm 2 mps 752 mmHg 50%
    19:00 +18°C° 0 mm 2 mps 752 mmHg 54%
    20:00 +17°C° 0 mm 2 mps 752 mmHg 57%
    21:00 +17°C° 0 mm 2 mps 752 mmHg 58%
    22:00 +16°C° 0 mm 2 mps 752 mmHg 60%
    23:00 +16°C° 0 mm 2 mps 752 mmHg 61%
    Show more